Flag for Poland Weather past 2 weeks in Poznan, Poland

Now
43 °F

Scattered clouds.


Feels Like: 36 °F
Forecast: 43 / 52 °F
Wind: 12 mph from West

Location: Poznan Airport

Current Time: Dec 18, 2014 at 9:01:22 AM

Latest Report: Dec 18, 2014 at 8:30 AM


Visibility: 4 mi

Pressure: 29.77 "Hg

Humidity: 93%

Dew point: 41 °F

Location of PoznanLocation

Historic Weather in Poznan — Graph

°F

Poznan temperature yesterday

Maximum temperature yesterday: 39 °F (at 1:30 AM)
Minimum temperature yesterday: 36 °F (at 4:30 AM)
Average temperature yesterday: 37 °F

Past Weeks' High & Low Weather Summary

 TemperatureHumidityPressure
High48 °F (Dec 12, 8:30 PM)93% (Dec 5, 7:30 AM)30.39 "Hg (Dec 5, 7:30 AM)
Low25 °F (Dec 10, 2:30 AM)62% (Dec 12, 8:30 PM)29.47 "Hg (Dec 12, 7:00 PM)
Average37 °F84%29.98 "Hg
* Reported Dec 3 8:00 AM — Dec 18 8:00 AM, Poznan, Weather by CustomWeather, © 2014

Note: Actual official high and low records may vary slightly from our data, if they occured in-between our weather recording intervals... More about our weather records

Advertising

Poznan weather history for previous 24 hours

 ConditionsComfort  
Time TempWeatherWind HumidityBarometerVisibility
8:00 AM
Dec 18
43 °FLight rain. Fog.13 mph87%29.77 "Hg2 mi
7:30 AM43 °FDrizzle. Fog.10 mph87%29.77 "Hg2 mi
7:00 AM43 °FDrizzle. Fog.10 mph87%29.74 "Hg3 mi
6:30 AM41 °FLow clouds.9 mph93%29.74 "Hg4 mi
6:00 AM41 °FDrizzle. Fog.9 mph87%29.74 "Hg2 mi
5:30 AM39 °FDrizzle. Fog.8 mph93%29.74 "Hg2 mi
4:30 AM39 °FFog.6 mph87%29.71 "Hg2 mi
4:00 AM39 °FFog.7 mph87%29.71 "Hg2 mi
3:30 AM39 °FLow clouds.7 mph87%29.71 "Hg5 mi
3:00 AM39 °FLow clouds.7 mph87%29.71 "HgN/A
2:30 AM39 °FLow clouds.6 mph87%29.71 "HgN/A
2:00 AM39 °FDrizzle. Low clouds.7 mph81%29.68 "HgN/A
1:30 AM39 °FOvercast.7 mph81%29.68 "HgN/A
1:00 AM39 °FOvercast.7 mph81%29.68 "HgN/A
12:30 AM39 °FPassing clouds.7 mph81%29.68 "HgN/A
12:00 AM39 °FPassing clouds.7 mph75%29.68 "HgN/A
11:30 PM
Dec 17
39 °FPassing clouds.7 mph75%29.68 "HgN/A
11:00 PM37 °FPassing clouds.8 mph81%29.71 "HgN/A
10:30 PM37 °FPassing clouds.8 mph81%29.71 "HgN/A
10:00 PM37 °FLight rain. Passing clouds.8 mph81%29.68 "HgN/A
9:30 PM39 °FLight rain. Passing clouds.8 mph70%29.68 "HgN/A
9:00 PM39 °FPassing clouds.9 mph70%29.71 "HgN/A
8:30 PM37 °FPassing clouds.6 mph75%29.68 "HgN/A
8:00 PM36 °FPassing clouds.7 mph81%29.71 "HgN/A
7:30 PM36 °FPassing clouds.7 mph81%29.71 "HgN/A
7:00 PM36 °FPassing clouds.7 mph81%29.71 "HgN/A
6:30 PM36 °FClear.6 mph87%29.71 "Hg10 mi
6:00 PM36 °FClear.6 mph87%29.71 "Hg10 mi
5:30 PM36 °FClear.6 mph87%29.71 "Hg10 mi
5:00 PM37 °FClear.5 mph81%29.71 "Hg10 mi
4:30 PM37 °FClear.5 mph81%29.71 "Hg10 mi
4:00 PM37 °FClear.7 mph81%29.74 "Hg10 mi
3:30 PM37 °FSunny.8 mph81%29.74 "Hg10 mi
3:00 PM39 °FSunny.8 mph75%29.74 "Hg10 mi
2:30 PM39 °FPassing clouds.9 mph75%29.77 "HgN/A
2:00 PM39 °FPassing clouds.9 mph75%29.77 "HgN/A
1:30 PM39 °FPassing clouds.10 mph75%29.77 "HgN/A
1:00 PM39 °FPassing clouds.9 mph81%29.77 "HgN/A
12:30 PM39 °FPassing clouds.9 mph81%29.77 "HgN/A
12:00 PM39 °FScattered clouds.9 mph81%29.80 "HgN/A
11:30 AM39 °FScattered clouds.12 mph81%29.80 "HgN/A
11:00 AM37 °FScattered clouds.10 mph87%29.80 "HgN/A
10:30 AM37 °FPartly sunny.10 mph87%29.80 "HgN/A
10:00 AM37 °FScattered clouds.13 mph87%29.83 "HgN/A
9:30 AM37 °FScattered clouds.12 mph81%29.83 "HgN/A
9:00 AM37 °FPartly sunny.13 mph81%29.83 "HgN/A
Weather by CustomWeather, © 2014

See weather overviewHow to use our weather pages